Simultaneous Nadir Overpasses (SNOs) Predictions

Prediction of SNOs over PacNW region [( 10.00, 139.50) to ( 22.70, 165.60)] between AQUA and NPP Satellites:

Table of predicted SNOs over PacNW region for the next 30.0 days since TLE Epoch: 4/15/2023
Index Date (AQUA) Time (AQUA) AQUA Lat,Lon Date (NPP) Time (NPP) NPP Lat,Lon Distance(km) Time Diff (sec)
1 04/17/2023 03:00:19 22.69, 158.23 04/17/2023 02:57:45 21.85, 153.96 449.01 154
2 04/27/2023 15:37:33 22.61, 155.95 04/27/2023 15:38:28 23.74, 151.08 513.32 55
3 04/30/2023 03:57:13 22.69, 144.13 04/30/2023 03:54:35 21.80, 139.72 465.06 158
4 05/10/2023 14:57:45 13.32, 164.54 05/10/2023 14:56:27 14.27, 159.93 509.29 78
5 05/10/2023 16:34:00 22.63, 141.97 05/10/2023 16:35:14 23.82, 136.86 538.56 74
